South Lake Tahoe, CA

4:58 PM PDT on August 18, 2019 (GMT -0700)
Lake Tahoe

Weather History for KTVL - July, 2019

Change the Weather History Date:

Tuesday, July 16, 2019

  Actual Average Record
Temperature  
Mean Temperature 58 °F 62 °F  
Max Temperature 77 °F 81 °F 89 °F (2005)
Min Temperature 39 °F 42 °F 30 °F (1993)
Degree Days  
Heating Degree Days 7 4  
Month to date heating degree days 114 82  
Since 1 June heating degree days 359 392  
Since 1 July heating degree days 114 82  
Cooling Degree Days 0 1  
Month to date cooling degree days 0 4  
Year to date cooling degree days 0 5  
Since 1 June cooling degree days 0 5  
Growing Degree Days 7 (Base 50)    
Moisture  
Dew Point 41 °F    
Average Humidity 54    
Maximum Humidity 83    
Minimum Humidity 25    
Precipitation  
Precipitation 0.00 in - 0.44 in (1965)
Month to date precipitation 0.00  
Year to date precipitation 17.74  
Sea Level Pressure  
Sea Level Pressure 29.97 in    
Wind  
Wind Speed 5 mph (South)    
Max Wind Speed 17 mph    
Max Gust Speed 25 mph    
Visibility 10 miles    
Events      
T = Trace of Precipitation, MM = Missing Value Source: NWS Daily Summary

Daily Weather History Graph

Daily Weather History Graph

Search for Another Location

Airport or City:

Astronomy

Jul. 16, 2019 Rise Set
Actual Time 5:47 AM PDT 8:24 PM PDT
Civil Twilight 5:16 AM PDT 8:55 PM PDT
Nautical Twilight 4:37 AM PDT 9:33 PM PDT
Astronomical Twilight 3:54 AM PDT 10:16 PM PDT
Moon 8:34 PM PDT (7/16) 5:30 AM PDT (7/16)
Length of Visible Light 15h 38m
Length of Day
14h 36m
Full, 100% of the Moon is Illuminated
Jul 16
Full
Jul 16
Full
Jul 24
Last Quarter
Jul 31
New
Aug 7
First Quarter

Hourly Weather History & Observations

Time (PDT) Temp. Windchill Dew Point Humidity Pressure Visibility Wind Dir Wind Speed Gust Speed Precip Events Conditions
12:53 AM 48.9 °F - 41.0 °F 74% 30.02 in 10.0 mi SSW 3.5 mph - N/A   Clear
1:53 AM 46.9 °F - 36.0 °F 66% 30.01 in 10.0 mi South 3.5 mph - N/A   Clear
2:53 AM 44.1 °F - 37.9 °F 79% 30.01 in 10.0 mi Calm Calm - N/A   Clear
3:53 AM 43.0 °F - 37.0 °F 80% 30.00 in 10.0 mi Calm Calm - N/A   Clear
4:53 AM 41.0 °F - 36.0 °F 82% 30.00 in 10.0 mi Calm Calm - N/A   Clear
5:53 AM 39.0 °F - 34.0 °F 82% 30.02 in 10.0 mi Calm Calm - N/A   Clear
6:53 AM 41.0 °F 38.0 °F 34.0 °F 76% 30.02 in 10.0 mi South 4.6 mph - N/A   Clear
7:53 AM 51.1 °F - 36.0 °F 56% 29.99 in 10.0 mi South 3.5 mph - N/A   Clear
8:53 AM 62.1 °F - 42.1 °F 48% 29.97 in 10.0 mi NE 6.9 mph - N/A   Clear
9:53 AM 66.9 °F - 43.0 °F 42% 29.95 in 10.0 mi NE 8.1 mph - N/A   Clear
10:53 AM 71.1 °F - 39.9 °F 32% 29.94 in 10.0 mi Variable 3.5 mph - N/A   Clear
11:53 AM 72.0 °F - 35.1 °F 26% 29.96 in 10.0 mi SW 8.1 mph - N/A   Clear
12:53 PM 73.9 °F - 37.9 °F 27% 29.96 in 10.0 mi South 6.9 mph 18.4 mph N/A   Clear
1:53 PM 75.0 °F - 41.0 °F 29% 29.95 in 10.0 mi SSW 15.0 mph 21.9 mph N/A   Clear
2:53 PM 75.0 °F - 39.0 °F 27% 29.95 in 10.0 mi SSW 12.7 mph 21.9 mph N/A   Clear
3:53 PM 75.0 °F - 37.0 °F 25% 29.95 in 10.0 mi Variable 5.8 mph 18.4 mph N/A   Clear
4:53 PM 73.9 °F - 39.9 °F 29% 29.95 in 10.0 mi Variable 6.9 mph - N/A   Clear
5:53 PM 73.0 °F - 44.1 °F 35% 29.96 in 10.0 mi SSW 6.9 mph 16.1 mph N/A   Clear
6:53 PM 69.1 °F - 46.0 °F 44% 29.97 in 10.0 mi Variable 6.9 mph - N/A   Clear
7:53 PM 64.9 °F - 48.9 °F 56% 29.96 in 10.0 mi SW 5.8 mph - N/A   Clear
8:53 PM 61.0 °F - 50.0 °F 67% 29.95 in 10.0 mi Calm Calm - N/A   Clear
9:53 PM 57.0 °F - 50.0 °F 77% 29.96 in 10.0 mi Calm Calm - N/A   Clear
10:53 PM 55.0 °F - 48.9 °F 80% 29.96 in 10.0 mi Calm Calm - N/A   Clear
11:53 PM 53.1 °F - 48.0 °F 83% 29.96 in 10.0 mi Calm Calm - N/A   Clear